Location: Newark
(45.9167°N, 5.5000°E)
Time: 18:52:58
(UTC+00:00)

N. Korean satellite - Pass Details

Date: 03 February 2020
Orbit: 456 x 506 km, 97.2° (Epoch: 17 February)

Event Time Altitude Azimuth Distance (km) Brightness Sun altitude
Rises 04:59:32 0° 20° (NNE) 2,572 10.5 -20.9°
Reaches altitude 10° 05:01:43 10° 29° (NNE) 1,694 9.6 -20.5°
Maximum altitude 05:05:06 36° 97° (E) 808 8.3 -19.9°
Drops below altitude 10° 05:08:31 10° 165° (SSE) 1,701 9.5 -19.3°
Sets 05:10:43 0° 175° (S) 2,585 10.4 -19.0°
